Terminal Aerodrome Forecast
Issued by NWS Quad Cities IA IL

Home | Current Version | Previous Version | Text Only | Print | Product List | Glossary On
Versions: 1 2 3 4 5 6 7 8 9 10 11 12 13 14 15 16 17
000
FTUS43 KDVN 181100
TAFMLI
TAF
KMLI 181125Z 1812/1912 30010KT P6SM OVC035
     FM181400 36010KT P6SM BKN025
     FM182000 35007KT P6SM SCT030
     FM190100 VRB03KT P6SM SKC=

USA.gov is the U.S. government's official web portal to all federal, state and local government web resources and services.